Flag for Cameroon Weather past 2 weeks in Bamenda, Cameroon

Now
79 °F

Passing clouds.


Feels Like: 83 °F
Forecast: 55 / 84 °F
Wind: 5 mph from Southeast

Location: Douala Obs.

Current Time: Dec 20, 2014 at 4:12:43 AM

Latest Report: Dec 20, 2014 at 3:00 AM


Visibility: 4 mi

Pressure: 29.86 "Hg

Humidity: 100%

Dew point: 79 °F

Location of BamendaLocation

Historic Weather in Bamenda — Graph

°F

Bamenda temperature yesterday

Maximum temperature yesterday: 93 °F (at 2:00 PM)
Minimum temperature yesterday: 77 °F (at 3:00 AM)
Average temperature yesterday: 83 °F

Past Weeks' High & Low Weather Summary

 TemperatureHumidityPressure
High93 °F (Dec 19, 2:00 PM)100% (Dec 5, 8:00 AM)29.95 "Hg (Dec 5, 8:00 AM)
Low73 °F (Dec 11, 8:00 PM)49% (Dec 16, 3:00 PM)29.74 "Hg (Dec 12, 3:00 PM)
Average82 °F85%29.84 "Hg
* Reported Dec 5 2:00 AM — Dec 20 2:00 AM, Bamenda, Weather by CustomWeather, © 2014

Note: Actual official high and low records may vary slightly from our data, if they occured in-between our weather recording intervals... More about our weather records

Advertising

Bamenda weather history for previous 24 hours

 ConditionsComfort  
Time TempWeatherWind HumidityBarometerVisibility
2:00 AM
Dec 20
79 °FPassing clouds.2 mph100%29.89 "Hg4 mi
1:00 AM81 °FPassing clouds.2 mph94%29.89 "Hg4 mi
12:00 AM81 °FPassing clouds.2 mph94%29.89 "Hg4 mi
11:00 PM
Dec 19
81 °FPassing clouds.3 mph94%29.89 "Hg4 mi
10:00 PM82 °FPassing clouds.7 mph89%29.92 "Hg4 mi
9:00 PM82 °FPassing clouds.6 mph84%29.92 "Hg4 mi
8:00 PM82 °FPartly cloudy.5 mph89%29.86 "Hg4 mi
7:00 PM84 °FPartly cloudy.7 mph84%29.83 "Hg4 mi
6:00 PM84 °FBroken clouds.7 mph84%29.83 "Hg4 mi
5:00 PM88 °FBroken clouds.7 mph70%29.80 "Hg4 mi
4:00 PM90 °FScattered clouds.5 mph71%29.80 "Hg3 mi
3:00 PM91 °FPartly sunny.7 mph59%29.80 "Hg2 mi
2:00 PM93 °FPartly sunny.12 mph56%29.83 "Hg2 mi
1:00 PM91 °FPartly sunny.6 mph63%29.89 "Hg2 mi
12:00 PM88 °FPartly sunny.5 mph70%29.89 "Hg2 mi
11:00 AM86 °FPartly sunny.7 mph75%29.92 "Hg3 mi
10:00 AM84 °FScattered clouds.No wind84%29.92 "Hg2 mi
9:00 AM81 °FFog.No wind94%29.92 "Hg1 mi
8:00 AM79 °FFog.No wind94%29.92 "Hg1 mi
7:00 AM77 °FFog.No wind94%29.86 "Hg1 mi
6:00 AM77 °FFog.No wind100%29.86 "Hg2 mi
5:00 AM77 °FFog.No wind100%29.86 "Hg2 mi
4:00 AM77 °FFog.No wind100%29.86 "Hg2 mi
Weather by CustomWeather, © 2014

See weather overviewHow to use our weather pages